Simultaneous Nadir Overpasses (SNOs) Predictions

Prediction of SNOs over PacNW region [( 10.00, 139.50) to ( 22.70, 165.60)] between AQUA and NPP Satellites:

Table of predicted SNOs over PacNW region for the next 30.0 days since TLE Epoch: 4/19/2015
Index Date (AQUA) Time (AQUA) AQUA Lat,Lon Date (NPP) Time (NPP) NPP Lat,Lon Distance(km) Time Diff (sec)
1 04/20/2015 03:30:06 12.52, 149.77 04/20/2015 03:29:25 12.20, 148.36 157.21 41
2 04/28/2015 02:42:06 17.83, 160.94 04/28/2015 02:39:57 17.62, 159.81 121.94 129
3 05/03/2015 15:10:56 22.60, 159.78 05/03/2015 15:14:24 27.70, 158.52 582.04 208
4 05/06/2015 03:30:13 13.68, 149.54 05/06/2015 03:29:13 13.40, 148.15 153.49 60
5 05/14/2015 02:41:41 18.13, 160.98 05/14/2015 02:39:27 17.88, 159.83 124.66 134
